Time,TemperatureF,DewpointF,PressureIn,WindDirection,WindDirectionDegrees,WindSpeedMPH,WindSpeedGustMPH,Humidity,HourlyPrecipIn,Conditions,Clouds,dailyrainin,SoftwareType,DateUTC
2013-01-24 00:14:00,47.3,8.0,30.04,WNW,298,0.0,4.0,20,0.00,,,0.00,weatherlink.com 1.10,2013-01-24 07:14:00,
2013-01-24 00:29:00,48.1,7.0,30.02,SW,221,4.0,8.0,19,0.00,,,0.00,weatherlink.com 1.10,2013-01-24 07:29:00,
2013-01-24 00:44:00,49.2,8.0,30.02,SSW,197,10.0,15.0,19,0.00,,,0.00,weatherlink.com 1.10,2013-01-24 07:44:00,
2013-01-24 00:59:00,48.2,10.0,30.00,SSE,161,11.0,13.0,21,0.00,,,0.00,weatherlink.com 1.10,2013-01-24 07:59:00,
2013-01-24 01:14:00,47.8,10.0,30.00,SSE,165,4.0,17.0,22,0.00,,,0.00,weatherlink.com 1.10,2013-01-24 08:14:00,
2013-01-24 01:29:00,47.6,8.0,30.00,West,269,4.0,7.0,20,0.00,,,0.00,weatherlink.com 1.10,2013-01-24 08:29:00,
2013-01-24 01:44:00,49.0,9.0,30.00,ENE,65,7.0,10.0,20,0.00,,,0.00,weatherlink.com 1.10,2013-01-24 08:44:00,
2013-01-24 01:59:00,49.2,8.0,29.99,NNE,17,5.0,7.0,19,0.00,,,0.00,weatherlink.com 1.10,2013-01-24 08:59:00,
2013-01-24 02:14:00,50.7,8.0,29.99,SSE,153,2.0,7.0,18,0.00,,,0.00,weatherlink.com 1.10,2013-01-24 09:14:00,
2013-01-24 02:29:00,49.5,9.0,29.98,ENE,63,7.0,10.0,19,0.00,,,0.00,weatherlink.com 1.10,2013-01-24 09:29:00,
2013-01-24 02:44:00,48.8,8.0,29.97,ESE,115,0.0,8.0,19,0.00,,,0.00,weatherlink.com 1.10,2013-01-24 09:44:00,
2013-01-24 02:59:00,51.8,8.0,29.97,SW,225,9.0,22.0,17,0.00,,,0.00,weatherlink.com 1.10,2013-01-24 09:59:00,
2013-01-24 03:14:00,53.7,8.0,29.95,South,186,7.0,25.0,16,0.00,,,0.00,weatherlink.com 1.10,2013-01-24 10:14:00,
2013-01-24 03:29:00,49.3,10.0,29.95,SSE,167,12.0,21.0,20,0.00,,,0.00,weatherlink.com 1.10,2013-01-24 10:29:00,
2013-01-24 03:44:00,54.6,8.0,29.94,SSW,201,24.0,25.0,15,0.00,,,0.00,weatherlink.com 1.10,2013-01-24 10:44:00,
2013-01-24 03:59:00,54.0,9.0,29.94,SW,225,6.0,7.0,16,0.00,,,0.00,weatherlink.com 1.10,2013-01-24 10:59:00,
2013-01-24 04:14:00,53.7,11.0,29.91,SSE,153,13.0,30.0,18,0.00,,,0.00,weatherlink.com 1.10,2013-01-24 11:14:00,
2013-01-24 04:29:00,53.6,11.0,29.91,South,186,9.0,25.0,18,0.00,,,0.00,weatherlink.com 1.10,2013-01-24 11:29:00,
2013-01-24 04:44:00,54.4,10.0,29.91,SSE,162,12.0,23.0,17,0.00,,,0.00,weatherlink.com 1.10,2013-01-24 11:44:00,
2013-01-24 05:00:00,54.1,11.0,29.91,ESE,119,1.0,7.0,18,0.00,,,0.00,weatherlink.com 1.10,2013-01-24 12:00:00,
2013-01-24 05:14:00,55.0,14.0,29.90,SW,231,13.0,18.0,20,0.00,,,0.00,weatherlink.com 1.10,2013-01-24 12:14:00,
2013-01-24 05:29:00,55.4,16.0,29.89,West,269,7.0,17.0,21,0.00,,,0.00,weatherlink.com 1.10,2013-01-24 12:29:00,
2013-01-24 05:45:00,54.4,15.0,29.88,NW,319,10.0,15.0,21,0.00,,,0.00,weatherlink.com 1.10,2013-01-24 12:45:00,
2013-01-24 05:59:00,55.9,18.0,29.88,WNW,286,19.0,32.0,23,0.00,,,0.00,weatherlink.com 1.10,2013-01-24 12:59:00,
2013-01-24 06:14:00,57.3,19.0,29.84,WNW,292,40.0,65.0,22,0.00,,,0.00,weatherlink.com 1.10,2013-01-24 13:14:00,
2013-01-24 06:30:00,52.6,20.0,29.90,WNW,282,37.0,46.0,28,0.00,,,0.00,weatherlink.com 1.10,2013-01-24 13:30:00,
2013-01-24 06:45:00,55.1,21.0,29.83,West,270,48.0,65.0,26,0.00,,,0.00,weatherlink.com 1.10,2013-01-24 13:45:00,
2013-01-24 07:00:00,54.2,21.0,29.82,WSW,251,40.0,58.0,27,0.00,,,0.00,weatherlink.com 1.10,2013-01-24 14:00:00,
2013-01-24 07:15:00,53.7,20.0,29.83,West,279,48.0,56.0,27,0.00,,,0.00,weatherlink.com 1.10,2013-01-24 14:15:00,
2013-01-24 07:30:00,52.8,20.0,29.84,WSW,258,34.0,64.0,28,0.00,,,0.00,weatherlink.com 1.10,2013-01-24 14:30:00,
2013-01-24 07:45:00,52.4,20.0,29.85,West,271,43.0,61.0,28,0.00,,,0.00,weatherlink.com 1.10,2013-01-24 14:45:00,
2013-01-24 08:00:00,51.8,20.0,29.87,West,271,41.0,57.0,29,0.00,,,0.00,weatherlink.com 1.10,2013-01-24 15:00:00,
2013-01-24 08:15:00,52.0,20.0,29.84,West,269,51.0,56.0,29,0.00,,,0.00,weatherlink.com 1.10,2013-01-24 15:15:00,
2013-01-24 08:30:00,53.2,20.0,29.83,West,281,44.0,61.0,27,0.00,,,0.00,weatherlink.com 1.10,2013-01-24 15:30:00,
2013-01-24 08:45:00,52.4,20.0,29.86,WNW,298,21.0,42.0,28,0.00,,,0.00,weatherlink.com 1.10,2013-01-24 15:45:00,
2013-01-24 09:00:00,51.7,21.0,29.89,West,275,27.0,42.0,30,0.00,,,0.00,weatherlink.com 1.10,2013-01-24 16:00:00,
2013-01-24 09:15:00,51.9,21.0,29.89,West,263,14.0,56.0,30,0.00,,,0.00,weatherlink.com 1.10,2013-01-24 16:15:00,
2013-01-24 09:30:00,52.3,22.0,29.89,West,264,30.0,50.0,30,0.00,,,0.00,weatherlink.com 1.10,2013-01-24 16:30:00,
2013-01-24 09:45:00,52.8,22.0,29.92,West,281,18.0,37.0,30,0.00,,,0.00,weatherlink.com 1.10,2013-01-24 16:45:00,
2013-01-24 10:00:00,53.1,22.0,29.91,NW,305,22.0,42.0,30,0.00,,,0.00,weatherlink.com 1.10,2013-01-24 17:00:00,
2013-01-24 10:15:00,52.6,23.0,29.91,West,276,11.0,31.0,31,0.00,,,0.00,weatherlink.com 1.10,2013-01-24 17:15:00,
2013-01-24 10:30:00,52.9,24.0,29.89,SE,146,13.0,31.0,32,0.00,,,0.00,weatherlink.com 1.10,2013-01-24 17:30:00,
2013-01-24 10:45:00,53.0,23.0,29.87,SSE,166,13.0,20.0,31,0.00,,,0.00,weatherlink.com 1.10,2013-01-24 17:45:00,
2013-01-24 11:00:00,53.8,23.0,29.87,West,261,12.0,45.0,30,0.00,,,0.00,weatherlink.com 1.10,2013-01-24 18:00:00,
2013-01-24 11:15:00,52.7,23.0,29.87,West,278,16.0,35.0,32,0.00,,,0.00,weatherlink.com 1.10,2013-01-24 18:15:00,
2013-01-24 11:30:00,52.8,24.0,29.88,WSW,249,11.0,40.0,32,0.00,,,0.00,weatherlink.com 1.10,2013-01-24 18:30:00,
2013-01-24 11:45:00,53.1,24.0,29.88,SE,125,7.0,36.0,32,0.00,,,0.00,weatherlink.com 1.10,2013-01-24 18:45:00,
2013-01-24 12:00:00,53.2,24.0,29.89,WSW,245,12.0,22.0,32,0.00,,,0.00,weatherlink.com 1.10,2013-01-24 19:00:00,
2013-01-24 12:15:00,53.2,24.0,29.87,South,182,11.0,25.0,32,0.00,,,0.00,weatherlink.com 1.10,2013-01-24 19:15:00,
2013-01-24 12:30:00,53.2,23.0,29.88,WSW,255,23.0,38.0,31,0.00,,,0.00,weatherlink.com 1.10,2013-01-24 19:30:00,
2013-01-24 12:45:00,53.9,24.0,29.88,WNW,292,12.0,34.0,31,0.00,,,0.00,weatherlink.com 1.10,2013-01-24 19:45:00,
2013-01-24 13:00:00,54.4,24.0,29.87,SW,236,27.0,31.0,31,0.00,,,0.00,weatherlink.com 1.10,2013-01-24 20:00:00,
2013-01-24 13:15:00,54.6,22.0,29.89,West,277,10.0,29.0,28,0.00,,,0.00,weatherlink.com 1.10,2013-01-24 20:15:00,
2013-01-24 13:30:00,53.7,23.0,29.88,WSW,237,5.0,20.0,30,0.00,,,0.00,weatherlink.com 1.10,2013-01-24 20:30:00,
2013-01-24 13:45:00,54.1,23.0,29.89,West,271,7.0,19.0,30,0.00,,,0.00,weatherlink.com 1.10,2013-01-24 20:45:00,
2013-01-24 14:00:00,54.1,23.0,29.88,West,260,6.0,31.0,30,0.00,,,0.00,weatherlink.com 1.10,2013-01-24 21:00:00,
2013-01-24 14:15:00,53.6,23.0,29.89,SW,236,15.0,24.0,30,0.00,,,0.00,weatherlink.com 1.10,2013-01-24 21:15:00,
2013-01-24 14:30:00,53.0,23.0,29.92,NNW,345,7.0,25.0,31,0.00,,,0.00,weatherlink.com 1.10,2013-01-24 21:30:00,
2013-01-24 14:45:00,52.6,22.0,29.91,West,262,13.0,25.0,30,0.00,,,0.00,weatherlink.com 1.10,2013-01-24 21:45:00,
2013-01-24 15:00:00,52.3,23.0,29.93,West,268,14.0,18.0,32,0.00,,,0.00,weatherlink.com 1.10,2013-01-24 22:00:00,
2013-01-24 15:30:00,51.6,23.0,29.92,West,260,12.0,23.0,33,0.00,,,0.00,weatherlink.com 1.10,2013-01-24 22:30:00,
2013-01-24 15:45:00,51.4,23.0,29.93,West,273,16.0,17.0,33,0.00,,,0.00,weatherlink.com 1.10,2013-01-24 22:45:00,
2013-01-24 16:00:00,51.8,22.0,29.93,WNW,288,10.0,19.0,31,0.00,,,0.00,weatherlink.com 1.10,2013-01-24 23:00:00,
2013-01-24 16:15:00,50.7,24.0,29.94,WSW,252,9.0,16.0,35,0.00,,,0.00,weatherlink.com 1.10,2013-01-24 23:15:00,
2013-01-24 16:30:00,50.6,22.0,29.95,WSW,248,14.0,21.0,32,0.00,,,0.00,weatherlink.com 1.10,2013-01-24 23:30:00,
2013-01-24 16:45:00,49.7,21.0,29.96,SW,231,9.0,16.0,33,0.00,,,0.00,weatherlink.com 1.10,2013-01-24 23:45:00,
2013-01-24 17:00:00,49.2,22.0,29.95,WSW,243,12.0,19.0,34,0.00,,,0.00,weatherlink.com 1.10,2013-01-25 00:00:00,
2013-01-24 17:15:00,48.6,22.0,29.95,WSW,252,10.0,18.0,35,0.00,,,0.00,weatherlink.com 1.10,2013-01-25 00:15:00,
2013-01-24 17:30:00,48.8,21.0,29.96,West,259,14.0,20.0,33,0.00,,,0.00,weatherlink.com 1.10,2013-01-25 00:30:00,
2013-01-24 17:45:00,47.8,21.0,29.95,WSW,253,20.0,20.0,35,0.00,,,0.00,weatherlink.com 1.10,2013-01-25 00:45:00,
2013-01-24 18:01:00,48.4,21.0,29.96,WSW,247,19.0,28.0,34,0.00,,,0.00,weatherlink.com 1.10,2013-01-25 01:01:00,
2013-01-24 18:15:00,48.0,21.0,29.96,WSW,247,16.0,28.0,34,0.00,,,0.00,weatherlink.com 1.10,2013-01-25 01:15:00,
2013-01-24 18:30:00,48.1,21.0,29.96,SW,236,23.0,34.0,35,0.00,,,0.00,weatherlink.com 1.10,2013-01-25 01:30:00,
2013-01-24 18:45:00,47.7,21.0,29.97,WSW,243,24.0,31.0,35,0.00,,,0.00,weatherlink.com 1.10,2013-01-25 01:45:00,
2013-01-24 19:01:00,47.8,21.0,29.98,WSW,237,16.0,34.0,35,0.00,,,0.00,weatherlink.com 1.10,2013-01-25 02:01:00,
2013-01-24 19:15:00,47.6,22.0,29.98,WSW,251,18.0,33.0,36,0.00,,,0.00,weatherlink.com 1.10,2013-01-25 02:15:00,
2013-01-24 19:30:00,47.9,21.0,29.98,West,271,22.0,32.0,34,0.00,,,0.00,weatherlink.com 1.10,2013-01-25 02:30:00,
2013-01-24 19:45:00,47.7,20.0,29.97,West,263,26.0,34.0,33,0.00,,,0.00,weatherlink.com 1.10,2013-01-25 02:45:00,
2013-01-24 20:01:00,47.6,20.0,29.97,West,267,17.0,34.0,34,0.00,,,0.00,weatherlink.com 1.10,2013-01-25 03:01:00,
2013-01-24 20:16:00,47.1,21.0,29.98,WSW,258,25.0,32.0,35,0.00,,,0.00,weatherlink.com 1.10,2013-01-25 03:16:00,
2013-01-24 20:31:00,47.2,21.0,29.97,West,268,15.0,29.0,35,0.00,,,0.00,weatherlink.com 1.10,2013-01-25 03:31:00,
2013-01-24 20:46:00,47.2,20.0,29.97,WSW,256,16.0,30.0,34,0.00,,,0.00,weatherlink.com 1.10,2013-01-25 03:46:00,
2013-01-24 21:01:00,46.5,20.0,29.98,West,259,10.0,33.0,35,0.00,,,0.00,weatherlink.com 1.10,2013-01-25 04:01:00,
2013-01-24 21:16:00,47.1,19.0,29.99,WSW,250,20.0,29.0,33,0.00,,,0.00,weatherlink.com 1.10,2013-01-25 04:16:00,
2013-01-24 21:31:00,45.6,20.0,29.99,WNW,301,9.0,25.0,36,0.00,,,0.00,weatherlink.com 1.10,2013-01-25 04:31:00,
2013-01-24 21:46:00,41.3,22.0,29.99,NNW,346,3.0,9.0,47,0.00,,,0.00,weatherlink.com 1.10,2013-01-25 04:46:00,
2013-01-24 22:16:00,39.1,23.0,30.01,NNW,329,0.0,3.0,53,0.00,,,0.00,weatherlink.com 1.10,2013-01-25 05:16:00,
2013-01-24 22:31:00,41.7,21.0,30.00,NW,309,9.0,12.0,43,0.00,,,0.00,weatherlink.com 1.10,2013-01-25 05:31:00,
2013-01-24 22:46:00,43.3,20.0,30.01,West,261,15.0,24.0,40,0.00,,,0.00,weatherlink.com 1.10,2013-01-25 05:46:00,
2013-01-24 23:01:00,41.8,21.0,30.00,NW,314,6.0,17.0,43,0.00,,,0.00,weatherlink.com 1.10,2013-01-25 06:01:00,
2013-01-24 23:16:00,42.3,21.0,30.00,West,277,7.0,20.0,43,0.00,,,0.00,weatherlink.com 1.10,2013-01-25 06:16:00,
2013-01-24 23:31:00,39.5,22.0,30.02,North,360,9.0,17.0,50,0.00,,,0.00,weatherlink.com 1.10,2013-01-25 06:31:00,
2013-01-24 23:46:00,37.4,22.0,30.03,NNW,346,3.0,8.0,53,0.00,,,0.00,weatherlink.com 1.10,2013-01-25 06:46:00,